Location: Malvern Link
(52.1333°N, 2.3000°W)
Time: 10:06:23
(UTC+00:00)

CAS-4B - Visible Passes

Search period start: 04 July 2022 00:00
Search period end: 14 July 2022 00:00
Orbit: 524 x 536 km, 43.0° (Epoch: 03 July)

Date Brightness Start Highest point End Pass type
(mag) Time Alt. Az. Time Alt. Az. Time Alt. Az.
04 Jul ? 02:09:07 16° SSW 02:10:39 19° SSE 02:13:32 10° ESE visible
05 Jul ? 01:56:54 18° SSW 01:58:05 20° S 02:01:05 10° ESE visible
06 Jul ? 01:44:44 20° S 01:45:31 21° S 01:48:35 10° ESE visible
07 Jul ? 01:32:37 21° S 01:32:58 22° S 01:36:06 10° ESE visible
07 Jul ? 03:09:14 10° WSW 03:12:11 20° SSW 03:15:08 10° SE visible
08 Jul ? 01:20:38 22° S 01:20:38 22° S 01:23:34 10° SE visible
08 Jul ? 02:56:47 10° WSW 02:59:37 18° SSW 03:02:27 10° SSE visible
09 Jul ? 01:08:53 20° SSE 01:08:53 20° SSE 01:11:01 10° SE visible
09 Jul ? 02:44:22 10° WSW 02:47:02 17° SSW 02:49:42 10° SSE visible
10 Jul ? 00:57:37 14° SE 00:57:37 14° SE 00:58:27 10° SE visible
10 Jul ? 02:32:54 13° SW 02:34:27 16° SSW 02:36:55 10° SSE visible
11 Jul ? 02:22:38 14° S 02:22:38 14° S 02:24:03 10° SSE visible
11 Jul ? 22:48:00 10° SW 22:48:46 13° SSW 22:48:46 13° SSW visible
12 Jul ? 22:35:19 10° SW 22:37:59 20° S 22:37:59 20° S visible
13 Jul ? 22:22:40 10° SW 22:25:44 21° S 22:26:28 20° SSE visible
